Terminal Aerodrome Forecast
Issued by NWS Missoula, MT

Home | Current Version | Previous Version | Text Only | Print | Product List | Glossary On
Versions: 1 2 3 4 5 6 7 8 9 10 11 12 13
000
FTUS45 KMSO 280533
TAFBTM
TAF
KBTM 280533Z 2806/2906 15005KT P6SM SCT150
     FM281900 30011G20KT P6SM SCT150
     FM290300 15006KT P6SM SKC=

USA.gov is the U.S. government's official web portal to all federal, state and local government web resources and services.